Location: Caserta
(41.0670°N, 14.3330°E)
Time: 04:37:07
(UTC+02:00)

STARLINK-1341 - Pass Details

Date: 09 October 2020
Orbit: 549 x 550 km, 53.0° (Epoch: 20 October)

Event Time Altitude Azimuth Distance (km) Brightness Sun altitude
Exits shadow 05:22:29 13° 338° (NNW) 1,632 5.9 -20.6°
Maximum altitude 05:24:17 17° 8° (N) 1,454 5.9 -20.3°
Drops below altitude 10° 05:26:59 10° 49° (NE) 1,824 7.1 -19.8°
Sets 05:29:55 0° 70° (ENE) 2,718 8.7 -19.2°
